[[{"header":{"parameterUnit":"m.s-1","parameterCategory":1,"la1":30.2991,"la2":30.254,"lo1":-89.0895,"lo2":-89.0444,"dy":0.0017,"dx":0.0017,"nx":28,"ny":28,"refTime":"2024-07-12T21:00:00:Z","depth":0,"parameterNumber":2,"parameterNumberName":"U-component_of_WINDS"},"data":[0,0,0,0,0,0,0,0,0,0,0,0,0,0,0,0,0,0,0,0,0,0,0,0,0,0,0,0,0,0,0,0,0,0,0,0,0,0,0,0,0,0,0,0,0,0,0,0,0,0,0,0,0,0,0,0,0,0,2.6854,2.6855,0,2.6895,2.6895,2.6895,2.6864,2.6863,2.6862,2.686,2.6904,2.6906,2.6909,0,0,0,0,0,0,0,0,0,0,0,0,0,2.6754,2.6756,2.6854,2.6855,2.6855,2.6895,2.6895,2.6896,2.6865,2.6863,2.6861,2.686,2.6903,2.6906,2.6909,0,0,0,0,0,0,0,0,0,0,0,0,0,2.6796,2.6756,2.6854,2.6845,2.6844,2.6894,2.6895,2.6896,2.6865,2.6863,2.6861,2.6859,2.6902,2.6906,2.6909,2.6972,0,0,2.6921,2.6922,0,0,0,0,0,0,0,0,2.6794,2.68,2.6846,2.6845,2.6845,2.6872,2.6875,2.6921,2.6866,2.6857,2.686,2.6858,2.6895,2.6899,2.6911,2.6974,2.6976,2.6921,2.6923,2.6925,2.6926,0,0,0,0,0,0,0,2.6791,2.6798,2.687,2.6846,2.6846,2.6839,2.6843,2.6884,2.6887,2.6858,2.6856,2.6861,2.6895,2.6908,2.6912,2.6977,2.6921,2.6924,2.6926,2.6928,2.7094,2.7096,0,0,0,0,0,0,2.6788,2.6796,2.6869,2.6872,2.6814,2.6843,2.6847,2.6866,2.6887,2.6888,2.6862,2.6859,2.6903,2.6908,2.6914,2.6989,2.6925,2.6928,2.693,2.7092,2.7094,2.7097,0,0,0,0,0,0,2.6786,2.6795,2.6867,2.6833,2.6842,2.6846,2.6868,2.6868,2.6881,2.689,2.6891,2.6875,2.6901,2.6909,2.6958,2.699,2.693,2.6933,2.7089,2.7092,2.7096,2.7139,0,0,0,0,0,0,2.6784,2.6795,2.6818,2.6834,2.6844,2.691,2.687,2.687,2.6887,2.6883,2.6902,2.6903,2.69,2.6953,2.6961,2.6994,2.6936,2.7086,2.7091,2.7094,2.7135,2.7144,2.7151,0,0,0,0,0,2.678,2.6829,2.6819,2.6828,2.6872,2.6912,2.6918,2.6913,2.6889,2.6913,2.6919,2.6903,2.6985,2.6958,2.6968,2.7001,2.7084,2.7089,2.7094,2.7131,2.7142,2.7151,0,0,0,0,0,0,2.6817,2.6831,2.682,2.6875,2.6893,2.6907,2.6936,2.6924,2.6949,2.6944,2.6938,2.6942,2.6994,2.7003,2.6972,2.7064,2.7031,2.7038,2.7056,2.7066,2.7074,2.7071,2.6939,0,0,0,0,0,2.6832,2.6862,2.6872,2.692,2.6929,2.6932,2.6949,2.6943,2.6961,2.6969,2.6978,2.6997,2.7027,2.7047,2.7075,2.7136,2.714,2.7164,2.7172,2.7179,2.7185,2.7219,2.723,2.7113,2.7113,2.7113,0,0,2.6862,2.6873,2.6893,2.6928,2.6941,2.6973,2.6938,2.6973,2.6997,2.6974,2.7021,2.7029,2.705,2.7105,2.713,2.7114,2.7218,2.7185,2.7191,2.7193,2.7225,2.7236,2.7246,2.7117,2.7116,2.7116,0,0,2.6934,2.6945,2.6986,2.7,2.702,2.7021,2.7031,2.7047,2.7051,2.7098,2.7081,2.7111,2.7162,2.7178,2.7193,2.7272,2.7257,2.7281,2.7323,2.7356,2.7365,2.7373,2.7401,2.7411,2.7287,2.7287,2.7288,0,2.6969,2.7016,2.7009,2.7046,2.7062,2.7042,2.7085,2.7098,2.7127,2.7139,2.712,2.7185,2.7198,2.7257,2.7276,2.7289,2.73,2.7278,2.7364,2.7372,2.7379,2.7406,2.7417,2.729,2.729,2.729,2.7289,0,2.7059,2.7092,2.7123,2.715,2.717,2.721,2.721,2.7231,2.7224,2.7228,2.7276,2.7291,2.7321,2.7335,2.7329,2.7394,2.7383,2.7365,2.7331,2.7393,2.7418,2.7429,2.7294,2.7293,2.7292,2.7292,0,0,2.7155,2.7178,2.7189,2.7202,2.7222,2.7248,2.7287,2.7317,2.7335,2.7356,2.7389,2.7434,2.7417,2.7433,2.7429,2.7458,2.7519,2.7436,2.7436,2.7451,2.7592,2.7605,2.7617,2.751,2.7512,2.7514,2.759,0,2.7227,2.7294,2.729,2.7353,2.7384,2.7366,2.74,2.7417,2.7422,2.7449,2.7455,2.7486,2.7461,2.7471,2.7499,2.7506,2.7548,2.7501,2.7542,2.7543,2.7536,2.7631,2.7645,2.7716,2.76,2.7602,2.7603,0,2.7321,2.7344,2.741,2.7427,2.744,2.747,2.7497,2.7524,2.7543,2.7545,2.7564,2.7555,2.7595,2.7561,2.7617,2.7585,2.7602,2.7608,2.7611,2.7614,2.7576,2.7636,2.7739,2.7749,2.7618,2.7617,2.7616,0,2.7384,2.7432,2.7478,2.7489,2.751,2.7532,2.7541,2.7559,2.7577,2.7601,2.7613,2.7642,2.7658,2.7681,2.768,2.7655,2.7737,2.7703,2.774,2.774,2.7757,2.7756,2.7863,2.7769,2.7768,2.7768,2.7768,0,2.7466,2.7507,2.7507,2.7535,2.7581,2.7576,2.7622,2.7629,2.7645,2.7675,2.7662,2.769,2.7688,2.7717,2.7717,2.7764,2.7771,2.7774,2.7773,2.7775,2.7775,2.7785,2.778,2.7771,2.777,2.777,2.7769,0,2.7544,2.7545,2.7594,2.7609,2.7614,2.7648,2.7661,2.7689,2.7692,2.773,2.7739,2.7745,2.7779,2.7781,2.782,2.782,2.7877,2.7871,2.787,2.7869,2.7905,2.7902,2.8023,2.8039,2.7934,2.7935,2.7936,0,2.7595,2.7627,2.7646,2.7664,2.7675,2.7706,2.7724,2.7721,2.7741,2.7766,2.779,2.7823,2.7848,2.7903,2.7912,2.7942,2.7937,2.7977,2.7941,2.7942,2.7937,2.7935,2.7938,2.7984,2.7985,2.7986,2.7987,0,2.7687,2.7687,2.7713,2.7741,2.7763,2.7785,2.7805,2.7821,2.782,2.7844,2.7878,2.7898,2.7938,2.797,2.7999,2.801,2.7999,2.7998,2.8008,2.801,2.8008,2.8009,2.7889,2.7995,2.7994,2.7994,2.7993,2.7993,2.7754,2.7781,2.7798,2.7829,2.7844,2.7863,2.7889,2.7896,2.7924,2.7956,2.7953,2.799,2.801,2.8048,2.8061,2.8091,2.8078,2.8092,2.8096,2.8099,2.8103,2.8003,2.8097,2.8097,2.8096,2.8096,2.8096,0,2.7845,2.7855,2.7884,2.7912,2.7936,2.7923,2.7944,2.7966,2.7999,2.8018,2.8043,2.8083,2.8114,2.8125,2.8156,2.8178,2.8174,2.8187,2.8185,2.8188,2.8114,2.8102,2.819,2.819,2.819,2.819,2.819,2.819,2.7895,2.794,2.7942,2.7995,2.8005,2.8041,2.8055,2.8073,2.8088,2.8132,2.8158,2.8165,2.8181,2.8213,2.8242,2.8244,2.8256,2.8271,2.8271,2.8202,2.8193,2.8184,2.8172,2.8274,2.8274,2.8343,2.8343,2.8344]},{"header":{"parameterUnit":"m.s-1","parameterCategory":1,"la1":30.2991,"la2":30.254,"lo1":-89.0895,"lo2":-89.0444,"dy":0.0017,"dx":0.0017,"nx":28,"ny":28,"refTime":"2024-07-12T21:00:00:Z","depth":0,"parameterNumber":3,"parameterNumberName":"V-component_of_WINDS"},"data":[0,0,0,0,0,0,0,0,0,0,0,0,0,0,0,0,0,0,0,0,0,0,0,0,0,0,0,0,0,0,0,0,0,0,0,0,0,0,0,0,0,0,0,0,0,0,0,0,0,0,0,0,0,0,0,0,0,0,0.4295,0.4295,0,0.432,0.432,0.4321,0.4336,0.4337,0.4337,0.4337,0.4362,0.4362,0.4363,0,0,0,0,0,0,0,0,0,0,0,0,0,0.4258,0.4259,0.4295,0.4295,0.4295,0.432,0.432,0.4321,0.4336,0.4337,0.4337,0.4337,0.4362,0.4362,0.4363,0,0,0,0,0,0,0,0,0,0,0,0,0,0.4278,0.4259,0.4295,0.4306,0.4307,0.432,0.432,0.4321,0.4336,0.4337,0.4337,0.4337,0.4361,0.4362,0.4363,0.4366,0,0,0.4366,0.4366,0,0,0,0,0,0,0,0,0.4277,0.4279,0.4304,0.4305,0.4307,0.4325,0.4317,0.4336,0.4336,0.4325,0.4337,0.4337,0.4349,0.4351,0.4356,0.4367,0.4368,0.4366,0.4366,0.4367,0.4367,0,0,0,0,0,0,0,0.4275,0.4278,0.4305,0.4304,0.4306,0.4309,0.4312,0.432,0.4336,0.4326,0.4328,0.433,0.435,0.4355,0.4356,0.4368,0.4366,0.4367,0.4367,0.4367,0.4382,0.4382,0,0,0,0,0,0,0.4272,0.4277,0.4304,0.4305,0.4292,0.431,0.4313,0.4319,0.4336,0.4339,0.433,0.4331,0.4353,0.4355,0.4357,0.4361,0.4367,0.4368,0.4368,0.4382,0.4382,0.4382,0,0,0,0,0,0,0.4271,0.4274,0.4303,0.4291,0.4295,0.4311,0.4317,0.432,0.4324,0.4339,0.4342,0.4332,0.4353,0.4356,0.4363,0.4362,0.4368,0.4369,0.4382,0.4382,0.4382,0.4369,0,0,0,0,0,0,0.427,0.4274,0.4276,0.4291,0.4296,0.4309,0.4317,0.432,0.4326,0.4327,0.4342,0.4344,0.4354,0.4362,0.4364,0.4364,0.4369,0.4382,0.4382,0.4382,0.437,0.4368,0.4367,0,0,0,0,0,0.4269,0.4271,0.4276,0.4279,0.4298,0.4309,0.4311,0.4323,0.4326,0.4327,0.4337,0.4344,0.4362,0.4363,0.4365,0.4365,0.4383,0.4382,0.4382,0.437,0.4369,0.4367,0,0,0,0,0,0,0.4255,0.4274,0.4279,0.4287,0.4296,0.4312,0.4314,0.4321,0.4329,0.433,0.4343,0.4346,0.4352,0.4359,0.436,0.4368,0.4373,0.4373,0.4363,0.4362,0.4361,0.4359,0.437,0,0,0,0,0,0.4253,0.4261,0.4276,0.4281,0.4286,0.4299,0.4304,0.4311,0.4322,0.4326,0.4336,0.4345,0.4353,0.4358,0.4366,0.437,0.4373,0.4371,0.437,0.4369,0.4369,0.4371,0.437,0.4381,0.4381,0.4381,0,0,0.4249,0.426,0.4264,0.4279,0.4287,0.4294,0.4302,0.4309,0.4314,0.4327,0.4334,0.4342,0.4353,0.4359,0.4362,0.4365,0.4367,0.4369,0.4368,0.4368,0.4371,0.437,0.4369,0.438,0.438,0.438,0,0,0.4245,0.4254,0.4259,0.4267,0.4279,0.4288,0.4289,0.4303,0.4308,0.4316,0.4325,0.4331,0.4344,0.4351,0.4357,0.4353,0.436,0.4356,0.435,0.4352,0.4351,0.435,0.4348,0.4348,0.4356,0.4355,0.4355,0,0.4238,0.4249,0.4261,0.4267,0.4273,0.4284,0.4288,0.4295,0.431,0.4313,0.4316,0.4332,0.4341,0.4348,0.4347,0.4351,0.4352,0.4354,0.435,0.4349,0.4349,0.4347,0.4347,0.4355,0.4355,0.4355,0.4355,0,0.424,0.4247,0.4249,0.4262,0.4268,0.4274,0.4285,0.429,0.4296,0.4304,0.4311,0.4321,0.4331,0.4333,0.434,0.4341,0.4343,0.4348,0.4353,0.4347,0.4346,0.4345,0.4354,0.4354,0.4354,0.4354,0,0,0.4229,0.4247,0.4248,0.4253,0.4267,0.4273,0.4278,0.4287,0.4291,0.43,0.4304,0.4314,0.4318,0.4324,0.4332,0.4333,0.4329,0.4338,0.4339,0.4336,0.433,0.4326,0.4325,0.4334,0.4334,0.4334,0.4329,0,0.4226,0.4237,0.4247,0.4253,0.426,0.427,0.4274,0.4282,0.4289,0.4295,0.4303,0.431,0.4316,0.4319,0.4321,0.4329,0.4328,0.433,0.4337,0.4337,0.4334,0.4325,0.4321,0.4316,0.4329,0.4329,0.4329,0,0.4225,0.4233,0.4241,0.4252,0.4255,0.4259,0.4268,0.4274,0.4283,0.4288,0.4294,0.4302,0.4307,0.4311,0.4318,0.4319,0.4322,0.4326,0.4326,0.4328,0.4333,0.4326,0.4315,0.4314,0.4328,0.4328,0.4328,0,0.4216,0.4229,0.4234,0.4239,0.4253,0.4255,0.4261,0.4271,0.4275,0.4283,0.4286,0.4293,0.4298,0.4303,0.4312,0.4315,0.4318,0.4323,0.4322,0.4321,0.4322,0.4322,0.4312,0.4324,0.4324,0.4324,0.4324,0,0.4213,0.4216,0.423,0.4234,0.4238,0.4249,0.4252,0.4259,0.4267,0.4271,0.428,0.4284,0.4296,0.4301,0.4308,0.4312,0.4314,0.4318,0.432,0.4317,0.4316,0.4319,0.432,0.4324,0.4324,0.4324,0.4324,0,0.4203,0.4213,0.422,0.4232,0.4235,0.4238,0.4248,0.4251,0.4258,0.4264,0.4265,0.4276,0.4283,0.4292,0.4301,0.4306,0.4308,0.4312,0.4305,0.4307,0.4304,0.4304,0.4296,0.4295,0.4308,0.4308,0.4308,0,0.4201,0.4204,0.4216,0.4219,0.4225,0.4231,0.4235,0.4245,0.4249,0.4259,0.4261,0.4268,0.4274,0.4283,0.4292,0.4298,0.4302,0.4298,0.4303,0.43,0.4301,0.4301,0.4301,0.4297,0.4297,0.4297,0.4297,0,0.4194,0.4198,0.4205,0.4212,0.4217,0.4224,0.4231,0.4233,0.4244,0.4248,0.4255,0.4259,0.4268,0.4274,0.4282,0.4287,0.4294,0.4295,0.4295,0.4292,0.4289,0.429,0.4302,0.4295,0.4296,0.4296,0.4296,0.4296,0.4188,0.4191,0.42,0.4206,0.4212,0.4218,0.4221,0.4228,0.4234,0.4242,0.4247,0.4253,0.426,0.4271,0.4276,0.428,0.4283,0.4283,0.4283,0.4283,0.4282,0.4288,0.4282,0.4282,0.4282,0.4282,0.4282,0,0.4182,0.4188,0.4193,0.4202,0.4207,0.4212,0.422,0.4223,0.4228,0.4235,0.424,0.4247,0.4253,0.4261,0.4267,0.4269,0.4272,0.427,0.427,0.4271,0.4279,0.4278,0.4268,0.4268,0.4268,0.4268,0.4268,0.4268,0.4179,0.4184,0.4189,0.4196,0.4202,0.4208,0.4211,0.4216,0.4222,0.4229,0.4233,0.4239,0.4246,0.4253,0.4258,0.426,0.4262,0.4259,0.4262,0.427,0.4271,0.4272,0.4272,0.426,0.426,0.4254,0.4254,0.4254]}]]